Location: Colossi of Memnon
(25.7167°N, 32.6167°E)
Time: 03:20:58
(UTC+00:00)

CENTAUR R/B - Pass Details

Date: 05 March 2021
Orbit: 742 x 1446 km, 63.4° (Epoch: 31 March)

Event Time Altitude Azimuth Distance (km) Brightness Sun altitude
Rises 03:23:48 0° 337° (NNW) 4,330 5.6 -11.0°
Reaches altitude 10° 03:26:39 10° 341° (NNW) 3,425 5.1 -10.3°
Maximum altitude 03:35:09 61° 61° (ENE) 1,604 3.9 -8.4°
Drops below altitude 10° 03:43:54 10° 140° (SE) 3,529 6.1 -6.4°
Sets 03:46:51 0° 143° (SE) 4,469 6.6 -5.8°
